"Pseudo-MPEC" for C8KJAQ2

Created 2022 Dec 15 16:22:07 UT using Find_Orb

Click here for an explanation of pseudo-MPECs

 
 Astrometry: 
     C8KJAQ2*1C2022 12 01.31585604 47 54.157+04 57 32.65   ~C18M 21.62GVNEOCPG96
     C8KJAQ2 1C2022 12 01.32100304 48 02.426+04 57 18.32   ~C18M 20.99GVNEOCPG96
     C8KJAQ2 1C2022 12 01.32613904 48 10.688+04 57 03.64   ~C18M 21.16GVNEOCPG96
     C8KJAQ2 1C2022 12 01.33127004 48 18.922+04 56 49.24   ~C18M 20.33GVNEOCPG96
     C8KJAQ2 KC2022 12 01.41247504 50 28.460+04 52 54.30   ~C1AM 21.16GVNEOCPI52
     C8KJAQ2 KC2022 12 01.41431304 50 31.400+04 52 49.10   ~C1AM 20.24GVNEOCPI52
     C8KJAQ2 KC2022 12 01.41615104 50 34.290+04 52 43.60   ~C1AM 21.24GVNEOCPI52
     C8KJAQ2 KC2022 12 01.41799904 50 37.210+04 52 39.10   ~C1AM 20.83GVNEOCPI52

Station data:
(G96) Mt. Lemmon Survey  (N32.442751 W110.788720)  US/Arizona.  Observers T.
   A. Pruyne, B. M. Africano, E. J. Christensen, G. A. Farneth, D. C. Fuls,
   A. R. Gibbs, A. D. Grauer, H. Gröller, J. A. Johnson, R. A. Kowalski, S.
   M. Larson, G. J. Leonard, D. Rankin, R. L. Seaman, F. C. Shelly, K. W.
   Wierzchoś. 1.5-m reflector + 10K CCD.
(I52) Steward Observatory, Mt. Lemmon Station  (N32.442544 W110.788920)
   US/Arizona.  Observers T. A. Pruyne, B. M. Africano, E. J. Christensen, G.
   A. Farneth, D. C. Fuls, A. R. Gibbs, A. D. Grauer, H. Gröller, J. A.
   Johnson, R. A. Kowalski, S. M. Larson, G. J. Leonard, D. Rankin, R. L.
   Seaman, F. C. Shelly, K. W. Wierzchoś. 1.0-m reflector + CCD.

Orbital elements:  C8KJAQ2
   Perihelion 2022 Nov 7.39070 +/- 4.21 TT =  9:22:36 (JD 2459890.89070)
Epoch 2022 Dec  1.0 TT = JDT 2459914.5   Earth MOID: 0.0031      AutoNEOCP
M  13.67206065 +/- 3.5              (J2000 ecliptic)
n   0.57909641 +/- 0.194            Peri.  156.26146 +/- 6
a   1.42550517 +/- 0.318            Node   244.84549 +/- 0.8
e   0.3178015 +/- 0.154             Incl.    3.63694 +/- 1.1
P   1.70/621.65d           H 29.47  G  0.15   U 11.6  SR
q 0.97247736 +/- 0.0129    Q 1.87853297 +/- 1.96
From 8 observations 2022 Dec. 1 (2.5 hr); mean residual 0".29
Residuals in arcseconds: 
221201 G96  .30+  .26-    221201 G96  .20-  .26+    221201 I52  .13-  .27-    
221201 G96  .08-  .06+    221201 I52  .26+  .28-    221201 I52  .51-  .61+    
221201 G96  .09-  .01+    221201 I52  .44+  .13-    

Ephemerides (geocentric):
Date (UTC) HH   RA             Dec           delta  r     elong  mag " sig PA
---- --------  ------------   ------------  ------ ------ -----  --- --------
2022 12 15 16  06 34 15.412   +02 27 20.38  .06163 1.0401 154.2 24.7 241'   8
2022 12 15 17  06 34 18.920   +02 27 25.15  .06178 1.0402 154.2 24.7 241'   8
2022 12 15 18  06 34 22.406   +02 27 30.00  .06192 1.0404 154.2 24.7 241'   8
2022 12 15 19  06 34 25.872   +02 27 34.91  .06207 1.0405 154.2 24.7 242'   8
2022 12 15 20  06 34 29.316   +02 27 39.90  .06221 1.0406 154.2 24.7 242'   8
2022 12 15 21  06 34 32.738   +02 27 44.96  .06236 1.0408 154.2 24.7 242'   8
2022 12 15 22  06 34 36.140   +02 27 50.08  .06251 1.0409 154.3 24.7 243'   8
2022 12 15 23  06 34 39.521   +02 27 55.28  .06265 1.0410 154.3 24.7 243'   8
2022 12 16 00  06 34 42.881   +02 28 00.55  .06280 1.0412 154.3 24.7 243'   8
2022 12 16 01  06 34 46.220   +02 28 05.89  .06295 1.0413 154.3 24.7 244'   8
2022 12 16 02  06 34 49.539   +02 28 11.30  .06309 1.0415 154.3 24.7 244'   8
2022 12 16 03  06 34 52.838   +02 28 16.78  .06324 1.0416 154.3 24.7 244'   8
2022 12 16 04  06 34 56.116   +02 28 22.33  .06339 1.0417 154.4 24.7 245'   8
2022 12 16 05  06 34 59.374   +02 28 27.95  .06353 1.0419 154.4 24.7 245'   8
2022 12 16 06  06 35 02.613   +02 28 33.64  .06368 1.0420 154.4 24.8 245'   8
2022 12 16 07  06 35 05.831   +02 28 39.39  .06382 1.0422 154.4 24.8 246'   8
2022 12 16 08  06 35 09.030   +02 28 45.22  .06397 1.0423 154.4 24.8 246'   8
2022 12 16 09  06 35 12.210   +02 28 51.11  .06412 1.0424 154.5 24.8 246'   8
2022 12 16 10  06 35 15.370   +02 28 57.07  .06427 1.0426 154.5 24.8 247'   8
2022 12 16 11  06 35 18.510   +02 29 03.10  .06441 1.0427 154.5 24.8 247'   8
2022 12 16 12  06 35 21.632   +02 29 09.19  .06456 1.0428 154.5 24.8 247'   8
2022 12 16 13  06 35 24.734   +02 29 15.35  .06471 1.0430 154.5 24.8 248'   8
2022 12 16 14  06 35 27.817   +02 29 21.58  .06485 1.0431 154.6 24.8 248'   8
2022 12 16 15  06 35 30.882   +02 29 27.88  .06500 1.0433 154.6 24.8 248'   8
2022 12 16 16  06 35 33.928   +02 29 34.25  .06515 1.0434 154.6 24.8 248'   8
2022 12 16 17  06 35 36.955   +02 29 40.68  .06529 1.0435 154.6 24.8 249'   8
2022 12 16 18  06 35 39.964   +02 29 47.17  .06544 1.0437 154.6 24.8 249'   8
2022 12 16 19  06 35 42.955   +02 29 53.73  .06559 1.0438 154.6 24.8 249'   8
2022 12 16 20  06 35 45.927   +02 30 00.36  .06574 1.0440 154.7 24.8 250'   8
2022 12 16 21  06 35 48.881   +02 30 07.06  .06588 1.0441 154.7 24.8 250'   8
2022 12 16 22  06 35 51.817   +02 30 13.82  .06603 1.0442 154.7 24.8 250'   8
2022 12 16 23  06 35 54.736   +02 30 20.64  .06618 1.0444 154.7 24.8 250'   8
2022 12 17 00  06 35 57.636   +02 30 27.53  .06633 1.0445 154.7 24.8 251'   8
2022 12 17 01  06 36 00.519   +02 30 34.48  .06647 1.0447 154.8 24.8 251'   8
2022 12 17 02  06 36 03.385   +02 30 41.50  .06662 1.0448 154.8 24.8 251'   8
2022 12 17 03  06 36 06.233   +02 30 48.59  .06677 1.0449 154.8 24.9 252'   8
2022 12 17 04  06 36 09.064   +02 30 55.73  .06692 1.0451 154.8 24.9 252'   8
2022 12 17 05  06 36 11.877   +02 31 02.95  .06706 1.0452 154.8 24.9 252'   8
2022 12 17 06  06 36 14.674   +02 31 10.22  .06721 1.0454 154.9 24.9 252'   8
2022 12 17 07  06 36 17.453   +02 31 17.56  .06736 1.0455 154.9 24.9 253'   8
2022 12 17 08  06 36 20.216   +02 31 24.96  .06751 1.0457 154.9 24.9 253'   8
2022 12 17 09  06 36 22.962   +02 31 32.43  .06765 1.0458 154.9 24.9 253'   8
2022 12 17 10  06 36 25.691   +02 31 39.96  .06780 1.0459 154.9 24.9 254'   8
2022 12 17 11  06 36 28.403   +02 31 47.55  .06795 1.0461 154.9 24.9 254'   8
2022 12 17 12  06 36 31.100   +02 31 55.20  .06810 1.0462 155.0 24.9 254'   8
2022 12 17 13  06 36 33.780   +02 32 02.92  .06825 1.0464 155.0 24.9 254'   8
2022 12 17 14  06 36 36.443   +02 32 10.70  .06840 1.0465 155.0 24.9 255'   8
2022 12 17 15  06 36 39.091   +02 32 18.54  .06854 1.0466 155.0 24.9 255'   8